Location: Unspecified
(0.0000°N, 0.0000°E)
Time: 17:37:49
(UTC+02:00)

Ariane H10 - Visible Passes

Search period start: 22 July 2014 00:00
Search period end: 01 August 2014 00:00
Orbit: 482 x 34938 km, 7.2° (Epoch: 20 July)

Date Brightness Start Highest point End Pass type
(mag) Time Alt. Az. Time Alt. Az. Time Alt. Az.
22 Jul 7.0 05:25:46 38° WNW 12:04:52 86° SSE 15:05:20 10° E visible
23 Jul 7.7 02:06:07 24° ENE 02:06:07 24° ENE 11:14:31 10° E visible
23 Jul 4.9 22:20:12 10° W 22:22:56 28° W 22:22:56 28° W visible
25 Jul 7.3 05:47:00 30° WNW 11:19:36 87° S 15:28:08 10° E visible
26 Jul 7.5 02:27:21 33° ENE 02:27:21 33° ENE 11:42:49 10° E visible
26 Jul 5.9 22:43:18 10° W 22:43:51 13° W 22:43:51 13° W visible
28 Jul 7.5 06:08:13 23° WNW 10:39:29 88° S 15:50:39 10° E visible
29 Jul 7.3 02:48:33 44° ENE 02:48:33 44° ENE 12:09:16 10° E visible
31 Jul 7.5 06:29:24 16° WNW 09:56:20 89° S 16:12:56 10° E visible
